Location: Cassagne
(43.1218°N, 0.9901°E)
Time: 02:19:19
(UTC+00:00)

STARLINK-1092 - Pass Details

Date: 17 February 2020
Orbit: 374 x 385 km, 53.0° (Epoch: 03 April)

Event Time Altitude Azimuth Distance (km) Brightness Sun altitude
Exits shadow 03:51:13 - 105° (ESE) 1,882 7.1 -33.4°
Enters shadow 04:50:14 -64° 232° (SW) 11,916 10.4 -22.8°
Maximum altitude 05:24:59 52° 140° (SE) 486 3.6 -16.5°
